Terminal Aerodrome Forecast
Issued by NWS Denver/Boulder, CO

Home | Current Version | Previous Version | Text Only | Print | Product List | Glossary On
Versions: 1 2 3 4 5 6 7 8 9 10 11 12 13 14 15 16 17 18 19 20 21 22 23 24 25 26 27 28 29 30 31 32 33 34 35 36 37 38 39 40 41 42 43 44 45 46 47 48 49 50
964
FTUS45 KBOU 220142 AAC
TAFDEN
TAF AMD
KDEN 220142Z 2202/2306 21012G18KT P6SM SCT100 BKN150
     FM220205 33010KT P6SM SCT110 BKN150
     FM220400 23011KT P6SM FEW110 BKN200
     FM221600 03013G21KT P6SM FEW080 SCT200
     FM222100 06015G22KT P6SM SCT080 BKN200 PROB30 2223/2304
      VRB15G30KT -TSRA BKN060CB
     FM230400 08012KT P6SM VCSH SCT030 BKN060=

USA.gov is the U.S. government's official web portal to all federal, state and local government web resources and services.